Lapse_Rate
8.3 8.2 8.2 8.1 8.2 8.0 8.0 6.5 5.7 6.5 7.3 7.2 7.0 7.1 6.9 6.8 7.0 6.5 3.3 1.9 2.8 5.0 5.6 4.7 6.0 5.2 5.8 5.6 5.3 4.6 6.5 6.5 6.5 6.5 6.5 6.8 6.5 7.5 7.6 6.9 6.9 7.3 6.1 4.6 3.0
8.6 8.3 8.2 8.1 8.0 8.1 8.1 7.1 4.6 5.3 7.4 7.3 7.0 7.1 6.7 6.5 7.2 5.8 2.4 3.6 4.8 6.3 4.6 4.8 4.9 5.4 5.3 5.3 5.2 6.0 6.5 6.5 6.5 6.5 6.5 6.8 6.8 7.1 7.0 7.1 7.2 7.0 5.6 3.8 1.7
8.8 8.1 8.3 8.2 8.2 7.7 7.6 7.9 4.4 4.8 7.2 7.1 6.9 6.6 5.8 7.0 6.2 2.1 3.3 3.7 4.7 6.2 4.8 4.9 4.3 5.9 5.7 5.6 5.8 6.2 6.5 6.5 6.7 6.8 7.0 6.8 6.8 7.2 6.9 6.5 7.2 6.9 5.1 3.0 1.1
8.9 8.7 8.1 8.0 8.1 7.7 7.2 7.5 5.5 4.4 6.4 6.9 6.5 6.1 6.0 6.5 6.5 5.2 5.7 4.2 5.4 4.8 5.1 5.1 5.3 5.5 6.3 6.5 5.8 6.5 6.8 6.8 6.7 6.5 6.8 6.7 7.2 6.9 7.1 7.1 7.5 6.5 5.1 3.0 0.5
8.8 8.7 8.7 8.0 8.0 7.5 6.0 5.5 7.1 5.1 7.0 6.8 6.5 5.9 6.6 5.9 3.2 4.1 5.2 5.2 5.3 4.0 4.7 5.0 5.5 5.0 6.5 6.1 5.9 6.5 6.6 7.0 7.0 5.5 7.2 6.7 6.9 7.0 7.1 7.9 7.7 6.6 4.8 2.9 1.9
8.6 8.7 8.2 8.8 7.9 7.7 5.1 4.2 4.6 5.5 6.8 6.7 6.4 5.7 6.8 6.4 4.9 3.4 3.9 4.1 4.2 4.5 4.7 5.0 4.9 4.7 4.9 6.0 6.4 6.6 6.9 6.9 7.1 7.1 7.1 6.7 6.9 7.0 7.4 8.1 7.9 6.7 5.1 3.8 2.2
8.2 8.2 8.1 8.2 8.7 7.3 5.2 4.4 4.5 6.3 7.0 6.9 6.1 6.5 6.6 5.1 4.7 4.0 3.8 3.9 3.6 4.3 4.5 5.3 5.0 5.6 4.7 6.5 6.4 6.7 6.5 6.5 6.7 6.9 6.7 6.0 6.5 6.5 7.6 8.0 7.7 7.6 6.6 4.4 2.6
8.4 8.4 8.4 8.1 7.4 4.9 4.2 4.4 4.2 4.6 6.9 6.8 6.0 6.8 5.8 5.5 4.9 5.3 4.6 4.4 5.0 5.8 5.2 5.1 5.1 4.1 4.4 5.5 6.3 6.5 6.5 6.5 6.5 6.7 6.7 6.7 6.5 6.7 7.7 7.5 7.3 7.6 7.3 5.1 3.4
8.0 8.3 8.5 6.1 6.0 4.2 4.5 5.8 6.3 6.9 6.9 6.7 5.9 6.8 5.6 6.0 5.1 5.0 5.0 4.7 5.9 5.5 5.9 6.4 5.8 4.7 6.0 6.5 6.5 6.5 6.5 6.5 6.5 6.8 6.5 6.5 6.5 6.8 7.6 7.4 7.2 7.4 6.9 5.7 4.5
8.8 7.9 6.1 5.3 4.0 4.8 6.1 5.6 6.6 6.8 6.7 7.4 7.2 6.4 5.4 5.9 5.3 4.4 4.9 5.4 6.1 5.9 6.2 6.0 3.8 6.5 6.5 6.5 6.5 6.5 6.5 6.5 6.5 6.5 6.5 6.5 6.5 6.7 7.3 7.2 7.2 7.4 7.1 5.7 4.1
7.3 5.8 5.6 5.4 4.3 5.9 5.6 6.0 7.0 6.8 6.7 6.5 5.9 6.1 6.1 6.4 5.9 5.0 5.3 5.9 5.7 5.3 6.5 5.9 6.5 6.5 6.5 6.5 6.5 6.5 6.5 6.5 6.5 6.5 6.5 6.5 6.5 6.5 7.0 7.1 7.1 7.3 7.2 6.3 4.5
4.5 4.8 5.4 5.3 4.4 6.2 5.5 6.5 5.6 6.1 6.3 6.2 6.5 6.0 5.1 6.4 6.3 5.6 6.1 5.7 5.7 6.5 6.4 6.5 6.5 6.5 6.5 6.5 6.5 6.5 6.5 6.5 6.5 6.5 6.5 6.5 6.5 6.5 6.8 6.9 7.1 7.2 7.3 7.1 5.8
4.6 4.7 6.6 7.2 4.2 5.4 5.7 6.2 4.9 6.1 6.3 6.4 6.3 6.7 5.4 6.0 6.1 5.7 6.0 5.2 6.5 6.5 6.5 6.5 6.5 6.5 6.5 6.5 6.5 6.5 6.5 6.5 6.5 6.5 6.5 6.5 6.5 6.5 6.6 7.0 7.3 7.4 6.9 6.4 5.6
4.4 4.6 6.7 5.8 3.9 4.0 6.6 5.7 5.3 6.3 6.5 6.5 6.4 6.7 6.1 6.4 6.3 5.9 5.8 5.6 6.4 6.5 6.5 6.5 6.5 6.5 6.5 6.5 6.5 6.5 6.5 6.5 6.5 6.5 6.5 6.5 6.5 6.5 6.5 6.5 6.8 7.2 7.3 6.9 6.0
4.3 4.4 4.6 5.0 5.7 5.4 5.4 4.3 5.2 5.5 6.5 6.5 6.4 7.1 6.3 6.0 6.2 6.5 5.9 5.9 6.5 6.5 6.5 6.5 6.5 6.5 6.5 6.5 6.5 6.5 6.5 6.5 6.5 6.5 6.5 6.5 6.5 6.5 6.5 6.5 6.5 6.9 7.2 6.4 5.6
4.5 4.3 4.0 3.6 3.6 5.2 4.8 3.4 4.9 6.5 6.5 6.5 6.4 6.5 6.5 6.5 6.5 6.7 6.5 5.9 5.5 6.5 6.5 6.5 6.1 6.5 6.5 6.5 6.5 6.5 6.5 6.5 6.5 6.5 6.5 6.5 6.5 6.5 6.5 6.5 6.5 6.9 7.1 6.5 5.6
4.3 4.5 3.8 4.4 5.8 5.7 3.3 5.3 6.5 6.5 6.5 6.5 6.5 6.5 6.5 6.5 6.5 6.5 6.5 6.5 6.5 6.5 6.5 6.5 6.5 6.5 6.2 6.5 6.5 6.5 6.5 6.5 6.5 6.5 6.5 6.5 6.5 6.5 6.5 6.5 6.6 6.8 7.0 6.2 5.9
4.2 4.3 3.5 4.4 4.2 3.5 4.3 6.3 6.5 6.5 6.5 6.5 6.5 6.5 6.5 6.5 6.5 6.5 6.5 6.5 6.5 6.5 6.5 6.5 6.5 6.5 6.5 6.5 6.5 6.5 6.5 6.5 6.5 6.5 6.5 6.5 6.5 6.5 6.5 6.8 6.9 7.3 6.7 6.3 5.6
3.9 2.2 2.6 2.9 3.4 2.9 4.0 6.5 6.5 6.5 6.5 6.5 6.5 6.5 6.5 6.5 6.5 6.5 6.5 6.5 6.5 6.5 6.5 6.5 6.5 6.5 6.5 6.5 6.5 6.5 6.5 6.5 6.5 6.5 6.5 6.5 6.5 6.5 6.5 6.5 6.9 7.0 7.3 7.4 5.8
1.8 2.9 3.6 3.6 3.3 3.6 6.1 6.5 6.5 6.5 6.5 6.5 6.5 6.5 6.5 6.5 6.5 6.5 6.5 6.5 6.5 6.5 6.4 6.5 6.5 6.5 6.5 6.5 6.5 6.5 6.5 6.5 6.5 6.5 6.5 6.5 6.5 6.5 6.5 6.5 6.5 6.7 7.1 7.2 5.8
2.1 4.0 4.6 4.3 3.7 5.4 6.5 6.5 6.5 6.3 6.2 6.5 6.5 6.5 6.5 6.5 6.5 6.5 6.5 6.5 6.5 6.5 6.5 6.5 6.5 6.5 6.5 6.5 6.5 6.5 6.5 6.5 6.5 6.5 6.5 6.5 6.5 6.5 6.5 6.5 6.5 6.9 7.2 6.7 5.2
1.5 6.4 5.0 4.7 5.7 5.7 6.5 6.5 6.5 6.5 6.3 6.5 6.5 6.5 6.5 6.5 6.5 6.5 6.5 6.5 6.5 6.5 6.5 6.5 6.5 6.5 6.5 6.5 6.5 6.5 6.5 6.5 6.5 6.5 6.5 6.5 6.5 6.5 6.5 6.7 7.0 7.1 7.3 5.0 3.9
1.7 2.0 3.1 4.3 6.5 6.5 6.4 6.5 6.4 6.5 6.5 6.5 6.5 6.5 6.5 6.5 6.5 6.5 6.5 6.6 6.6 6.5 6.5 6.5 6.5 6.5 6.5 6.5 6.5 6.5 6.5 6.5 6.5 6.5 6.5 6.5 6.5 6.5 6.6 6.7 7.1 7.1 7.3 6.3 4.5
1.5 6.5 2.9 4.2 4.7 6.5 6.5 6.5 6.5 6.1 6.5 6.4 6.5 6.5 6.5 6.5 6.5 6.5 6.5 6.5 6.2 6.6 6.9 6.7 6.5 6.5 6.5 6.5 6.5 6.5 6.5 6.5 6.5 6.5 6.5 6.5 6.5 6.5 6.5 6.5 6.8 7.1 6.8 5.4 4.4
-0.5 5.9 5.4 6.5 6.2 6.5 6.5 6.5 6.5 6.5 6.3 6.4 6.5 6.5 6.5 6.5 6.5 6.5 6.5 6.5 6.6 6.8 6.6 6.5 6.5 6.5 6.5 6.5 6.5 6.5 6.5 6.5 6.5 6.5 6.5 6.5 6.5 6.5 6.5 6.5 6.6 6.9 6.7 5.7 5.2
2.6 4.4 3.1 4.8 5.1 6.5 6.5 6.5 6.5 6.5 6.5 6.5 6.5 6.5 6.5 6.5 6.5 6.5 6.5 6.5 6.5 6.5 6.5 6.5 6.5 6.5 6.5 6.5 6.5 6.5 6.5 6.5 6.5 6.5 6.5 6.5 6.5 6.5 6.4 6.9 6.9 7.0 7.0 5.7 4.3
0.9 2.7 4.0 5.9 6.4 6.5 6.5 6.5 6.5 6.5 6.4 6.4 6.5 6.5 6.5 6.5 6.2 6.1 5.9 5.7 6.5 6.5 6.5 6.5 6.5 6.5 6.5 6.5 6.5 6.5 6.5 6.5 6.5 6.5 6.5 6.5 6.5 6.5 6.5 6.7 6.9 7.0 6.1 4.9 4.0
Wind_Speed
16 16 15 14 13 13 10 10 10 12 12 8 7 6 7 7 6 4 13 8 9 7 8 7 3 5 3 3 2 2 3 4 6 6 7 5 6 5 7 9 7 7 8 5 9
18 16 15 15 14 15 13 10 10 13 12 9 6 5 8 7 3 14 6 16 15 4 6 9 6 7 3 3 2 3 3 5 2 3 8 5 8 9 5 8 8 8 11 11 12
19 18 15 15 15 15 14 12 9 12 12 9 6 6 13 7 2 8 21 26 18 11 5 3 6 5 4 3 3 2 3 2 6 8 10 7 6 5 13 7 7 5 7 11 13
18 18 17 15 15 16 15 14 10 11 11 11 5 13 12 4 6 2 3 26 21 12 7 6 5 5 4 7 3 6 9 6 4 6 7 5 9 9 11 7 9 9 9 11 15
19 18 17 16 16 16 16 16 13 10 10 9 6 19 5 2 8 6 13 21 13 11 10 7 6 5 7 6 5 5 5 11 13 19 15 18 16 12 13 11 10 10 12 14 13
19 19 18 17 17 16 17 16 14 13 10 7 7 16 4 3 3 12 3 12 7 7 7 7 8 5 5 5 4 6 16 13 9 11 7 15 8 5 6 9 11 11 13 13 14
19 19 19 18 17 17 15 14 14 16 12 5 13 4 2 10 1 11 5 4 5 5 7 3 7 4 6 7 8 9 12 10 5 5 8 13 8 9 6 8 10 11 11 13 14
19 18 18 18 16 16 15 17 17 12 6 8 15 1 5 3 5 3 5 4 6 5 5 4 4 7 5 11 5 5 4 5 2 3 2 4 4 5 4 6 9 9 10 11 13
20 20 19 17 15 14 15 18 16 2 7 9 5 2 6 5 2 4 5 8 6 4 3 3 5 5 4 6 4 1 5 5 4 5 5 1 6 7 5 6 8 8 8 9 9
22 19 17 15 13 13 15 15 5 7 6 3 4 1 4 3 3 6 3 8 5 7 5 3 4 4 3 4 10 8 6 4 6 2 10 11 9 7 4 6 6 7 7 8 9
22 19 16 12 9 9 7 2 3 2 4 5 6 3 3 4 3 3 5 6 4 5 5 2 4 10 15 4 5 7 7 8 3 3 6 6 9 8 6 5 6 4 6 7 9
22 19 16 9 6 6 3 1 3 1 5 12 5 5 5 3 2 2 7 6 6 6 6 4 16 6 9 8 7 6 9 4 4 2 5 7 8 6 7 3 5 7 5 6 6
21 18 14 4 2 2 2 0 1 2 2 3 7 4 5 6 4 9 8 5 5 6 8 9 3 11 7 6 8 4 9 8 6 6 6 9 3 8 5 4 6 6 7 6 6
19 17 16 4 4 2 2 5 5 1 3 3 3 5 5 4 3 4 7 6 3 13 5 3 2 14 8 8 6 6 5 12 18 10 5 2 4 6 8 9 11 10 9 8 8
17 13 6 4 2 2 2 9 4 1 2 2 2 1 2 6 4 3 4 4 8 7 7 8 8 8 11 12 7 4 12 10 9 4 5 4 2 2 9 12 17 14 11 9 8
14 5 5 3 2 3 9 5 1 3 5 1 2 3 5 2 1 3 2 3 4 5 1 4 2 8 9 4 11 17 10 8 4 3 2 8 6 5 9 9 15 15 13 12 10
11 1 3 4 0 7 6 2 3 2 5 1 1 3 3 4 3 3 8 5 5 5 4 2 3 3 5 7 13 6 7 3 2 4 5 7 7 6 5 3 15 21 17 14 11
11 1 3 1 7 6 2 3 2 1 2 3 3 2 4 3 3 4 13 10 6 2 3 7 4 9 5 8 11 9 12 6 8 6 6 5 7 4 1 1 10 16 17 15 12
7 2 2 3 4 1 5 2 4 1 1 4 3 4 3 3 4 3 5 8 11 12 5 6 6 1 3 4 13 7 10 8 5 3 3 5 2 3 5 9 15 17 17 15 12
1 2 3 7 1 4 2 4 3 1 1 2 1 4 6 6 4 6 7 6 9 13 6 2 2 0 3 3 2 8 9 5 3 7 6 3 3 4 14 18 17 19 17 15 13
2 3 3 4 2 3 3 4 4 1 0 2 3 3 1 5 7 6 5 4 2 11 16 8 5 1 3 4 6 3 6 4 4 6 6 2 5 2 8 19 20 17 16 15 13
2 2 3 2 3 1 3 3 2 2 1 3 2 5 5 4 2 5 8 2 7 3 11 12 4 4 2 2 2 1 2 17 9 7 0 1 4 4 3 18 19 18 17 14 13
2 1 3 2 1 2 4 4 2 2 4 2 4 5 3 4 4 5 4 3 5 4 6 5 4 4 1 2 2 4 4 2 4 2 9 5 4 4 10 15 16 17 15 14 13
2 3 4 3 1 1 4 4 4 1 4 3 3 0 2 5 6 4 3 2 2 1 5 4 5 5 11 3 4 7 7 7 7 6 6 10 5 6 14 18 17 16 16 14 12
4 1 2 2 2 3 2 3 3 3 3 2 2 5 4 2 3 5 2 1 3 4 4 3 4 5 3 2 2 2 6 12 15 12 8 4 8 15 18 18 16 16 15 14 12
2 3 4 1 2 3 2 0 3 5 1 2 4 5 3 5 5 3 2 3 4 2 4 2 1 2 1 3 3 3 1 7 2 3 4 4 1 3 13 14 16 16 16 14 12
1 1 2 1 1 1 2 1 1 2 1 1 2 4 5 5 4 2 2 1 4 4 6 5 5 3 1 5 5 4 8 7 3 2 5 7 4 12 16 16 15 15 14 13 12
Wind_Direction
344 342 345 340 339 339 331 330 323 317 323 301 298 249 214 175 155 221 236 224 209 219 136 126 85 109 101 114 102 130 80 174 178 161 149 153 117 60 73 84 53 53 64 31 6
344 341 341 338 343 337 332 323 327 316 315 316 272 250 152 151 221 250 217 228 220 208 122 139 145 136 99 130 110 103 134 202 23 123 148 92 97 114 94 95 72 73 51 45 38
340 343 344 342 338 335 330 325 320 306 311 311 261 213 133 135 11 250 217 210 201 203 152 121 127 123 120 124 178 91 123 93 25 97 114 105 75 66 124 59 54 80 47 46 48
342 341 346 344 338 331 330 327 314 309 307 315 247 147 139 77 198 311 270 196 185 170 130 121 122 118 126 155 145 98 47 69 8 42 95 88 96 75 52 99 91 80 70 61 52
344 342 341 342 338 333 328 322 317 304 296 313 216 148 146 138 255 289 326 176 170 151 157 145 136 132 150 144 103 91 113 62 90 78 73 88 82 97 89 100 92 81 72 63 59
346 342 340 338 337 330 325 319 310 302 290 296 219 164 115 232 221 334 231 150 153 135 153 141 168 171 103 72 72 96 100 111 76 94 115 103 91 114 94 107 91 78 66 63 56
343 341 337 335 333 330 321 312 309 299 281 244 175 190 158 240 266 344 85 129 144 129 140 192 161 124 124 95 147 135 99 109 85 111 127 128 40 74 100 111 95 81 69 60 52
342 338 335 333 332 326 318 316 311 297 249 198 165 130 250 250 274 178 116 70 90 98 114 131 127 102 84 114 91 90 90 112 66 180 125 289 139 125 99 119 98 87 77 63 52
340 337 334 330 327 322 314 314 313 157 176 144 134 106 258 321 185 168 131 134 109 91 85 119 88 100 126 109 80 147 140 114 135 25 134 148 140 142 126 129 112 97 84 77 60
337 335 330 326 328 316 319 302 279 107 115 104 83 47 274 239 165 125 67 117 123 113 76 84 67 107 89 139 184 181 145 87 133 59 61 92 120 131 123 131 113 107 92 81 67
337 333 329 329 325 320 339 33 121 62 242 208 182 214 348 322 129 68 139 89 88 90 154 175 134 193 187 167 115 115 108 113 95 85 87 99 139 160 148 136 133 118 100 84 72
340 334 330 334 322 314 307 280 99 254 280 228 229 244 249 253 106 156 145 124 139 163 122 97 216 168 133 151 120 99 116 93 83 114 96 155 156 167 179 180 173 154 133 116 97
341 337 331 12 327 356 270 194 104 26 241 265 201 196 221 152 213 191 144 123 132 138 187 184 267 140 136 141 132 159 157 173 153 133 62 131 211 198 190 158 162 153 140 129 119
341 338 329 28 61 271 249 345 319 346 33 233 195 251 173 156 226 164 180 138 156 188 133 268 155 161 154 182 147 170 173 144 141 154 192 218 258 218 192 194 197 179 167 148 131
337 334 19 105 123 143 316 326 317 55 331 130 194 162 177 154 146 205 194 87 161 171 148 214 156 154 175 194 152 181 131 136 151 94 130 203 244 130 155 214 208 184 170 158 144
346 341 92 39 7 272 319 329 333 28 257 131 125 154 141 133 100 104 151 65 142 123 101 167 149 158 192 133 163 135 94 77 92 123 253 178 198 210 192 208 182 173 171 158 147
355 44 130 141 163 337 321 90 75 207 351 44 189 156 196 166 121 173 184 205 159 132 181 137 185 193 132 85 141 127 141 118 180 195 228 166 179 269 163 194 176 168 163 162 149
346 87 326 233 314 318 27 52 167 260 329 334 317 127 188 155 174 161 178 223 236 119 146 166 212 173 188 163 177 192 176 166 202 198 197 158 224 238 24 54 145 157 148 148 150
332 346 355 291 329 77 67 73 222 301 345 335 298 142 230 229 142 132 208 216 210 198 208 177 228 156 156 150 152 202 210 183 109 46 118 194 282 194 136 132 143 147 148 154 150
43 35 317 318 359 66 94 256 246 333 305 261 27 343 206 185 148 186 186 219 217 209 142 275 213 270 139 137 215 174 167 177 195 179 225 220 258 226 197 181 167 165 159 156 151
47 52 265 324 36 94 192 235 287 253 126 269 197 234 303 332 193 189 208 274 252 184 191 169 202 319 97 206 176 157 185 217 200 202 220 210 242 16 209 179 170 163 158 155 156
70 34 299 359 61 31 236 199 343 269 198 234 215 243 228 206 249 249 218 234 345 149 188 187 168 177 170 127 62 346 227 204 214 210 232 150 242 336 288 160 159 159 159 154 152
80 256 311 72 159 307 315 292 249 285 238 209 248 213 170 202 270 207 199 355 9 359 174 178 204 144 26 310 33 235 183 106 105 74 208 191 219 352 137 148 159 152 152 151 144
75 21 333 35 104 250 301 268 285 333 280 266 256 280 211 238 218 254 245 188 326 58 16 246 193 218 232 167 134 175 188 200 186 214 201 229 168 174 161 159 156 155 148 146 148
27 127 146 323 19 338 313 297 271 293 203 268 244 220 175 266 261 233 229 299 191 217 181 179 264 184 146 125 91 152 172 184 206 210 208 213 183 187 175 162 153 142 142 140 146
74 38 12 273 271 275 294 309 330 335 325 318 268 332 246 223 220 257 163 194 245 123 164 192 234 90 95 113 128 156 263 157 93 112 96 111 183 233 132 132 143 147 149 152 157
332 55 116 281 327 142 230 290 262 12 260 147 292 304 278 256 294 284 273 141 182 176 192 181 156 139 236 125 122 267 205 195 120 95 136 177 142 142 140 145 148 144 153 161 165